Laredo, TX

12:57 PM CDT on October 17, 2017 (GMT -0500)
Laredo International

Weather History for KLRD - March, 2013

Change the Weather History Date:

Tuesday, March 19, 2013

  Actual Average Record
Temperature  
Mean Temperature 79 °F 69 °F  
Max Temperature 95 °F 81 °F 99 °F (1908)
Min Temperature 63 °F 58 °F 27 °F (1988)
Degree Days  
Heating Degree Days 0 2  
Month to date heating degree days 22 55  
Since 1 July heating degree days 498 899  
Cooling Degree Days 14 6  
Month to date cooling degree days 117 88  
Year to date cooling degree days 271 173  
Growing Degree Days 29 (Base 50)    
Moisture  
Dew Point 52 °F    
Average Humidity 43    
Maximum Humidity 73    
Minimum Humidity 22    
Precipitation  
Precipitation 0.00 in 0.04 in 0.71 in (1989)
Month to date precipitation 0.00 0.72  
Year to date precipitation 0.75 2.56  
Sea Level Pressure  
Sea Level Pressure 29.86 in    
Wind  
Wind Speed 9 mph (East)    
Max Wind Speed 22 mph    
Max Gust Speed 27 mph    
Visibility 10 miles    
Events      
T = Trace of Precipitation, MM = Missing Value Source: NWS Daily Summary

Daily Weather History Graph

Daily Weather History Graph

Search for Another Location

Airport or City:

Trip Planner

Search our weather history database for the weather conditions in past years. The results will help you decide how hot, cold, wet, or windy it might be!

Date:

Astronomy

Mar. 19, 2013 Rise Set
Actual Time 7:42 AM CDT 7:48 PM CDT
Civil Twilight 7:19 AM CDT 8:12 PM CDT
Nautical Twilight 6:52 AM CDT 8:39 PM CDT
Astronomical Twilight 6:24 AM CDT 9:06 PM CDT
Moon 1:02 PM CDT (3/19) 2:08 AM CDT (3/19)
Length of Visible Light 12h 52m
Length of Day
12h 06m
Waxing Crescent, 50% of the Moon is Illuminated
Mar 19
Waxing Crescent
Mar 19
First Quarter
Mar 27
Full
Apr 2
Last Quarter
Apr 10
New

Hourly Weather History & Observations

Time (CDT) Temp. Heat Index Dew Point Humidity Pressure Visibility Wind Dir Wind Speed Gust Speed Precip Events Conditions
12:56 AM 75.2 °F - 37.4 °F 25% 29.90 in 10.0 mi NE 15.0 mph - N/A   Clear
1:56 AM 73.9 °F - 41.9 °F 32% 29.88 in 10.0 mi ENE 15.0 mph - N/A   Clear
2:56 AM 70.9 °F - 45.9 °F 41% 29.86 in 10.0 mi ENE 11.5 mph - N/A   Clear
3:56 AM 69.8 °F - 51.8 °F 53% 29.92 in 10.0 mi East 5.8 mph - N/A   Clear
4:56 AM 66.9 °F - 54.0 °F 63% 29.88 in 10.0 mi ENE 8.1 mph - N/A   Clear
5:56 AM 64.9 °F - 52.0 °F 63% 29.90 in 10.0 mi ENE 4.6 mph - N/A   Clear
6:56 AM 63.0 °F - 45.0 °F 52% 29.92 in 10.0 mi NE 6.9 mph - N/A   Clear
7:56 AM 63.0 °F - 46.9 °F 56% 29.94 in 10.0 mi NE 10.4 mph - N/A   Clear
8:56 AM 64.9 °F - 47.8 °F 54% 29.98 in 10.0 mi NNE 8.1 mph - N/A   Clear
9:56 AM 70.0 °F - 48.9 °F 47% 29.98 in 10.0 mi NE 6.9 mph - N/A   Clear
10:56 AM 73.9 °F - 52.9 °F 48% 29.97 in 10.0 mi East 6.9 mph - N/A   Clear
11:56 AM 79.9 °F - 55.9 °F 44% 29.95 in 10.0 mi ENE 6.9 mph - N/A   Clear
12:56 PM 83.8 °F 83.6 °F 59.0 °F 43% 29.91 in 10.0 mi SSE 11.5 mph 17.3 mph N/A   Clear
1:56 PM 88.9 °F 87.5 °F 56.8 °F 34% 29.86 in 10.0 mi SSE 10.4 mph - N/A   Clear
2:56 PM 90.9 °F 88.7 °F 54.9 °F 29% 29.82 in 10.0 mi Variable 6.9 mph - N/A   Clear
3:56 PM 92.8 °F - 52.9 °F 26% 29.78 in 10.0 mi Variable 3.5 mph - N/A   Clear
4:56 PM 93.9 °F - 50.0 °F 22% 29.75 in 10.0 mi South 6.9 mph 17.3 mph N/A   Clear
5:56 PM 95.0 °F - 50.0 °F 22% 29.73 in 10.0 mi ESE 8.1 mph - N/A   Clear
6:56 PM 92.8 °F - 50.0 °F 23% 29.73 in 10.0 mi SE 10.4 mph - N/A   Clear
7:56 PM 88.9 °F - 52.0 °F 28% 29.74 in 10.0 mi SE 8.1 mph - N/A   Clear
8:56 PM 86.0 °F 84.9 °F 56.8 °F 37% 29.75 in 10.0 mi ESE 12.7 mph - N/A   Clear
9:56 PM 81.0 °F 82.5 °F 63.9 °F 56% 29.79 in 10.0 mi ESE 19.6 mph - N/A   Clear
10:56 PM 75.9 °F - 63.9 °F 66% 29.83 in 10.0 mi East 10.4 mph - N/A   Clear
11:56 PM 73.9 °F - 64.9 °F 73% 29.84 in 8.0 mi East 12.7 mph - N/A   Clear